ATLAS 5 CENTAUR DEB, 44642

Orbit data source: Space-Track

ATLAS 5 CENTAUR DEB, 44642 is space debris in HEO originally from a launch on Wed, 17 Oct 2018 UTC launched from the Air Force Eastern Test Range (AFETR). Debris objects in space refer to the collection of defunct objects orbiting the Earth. Examples of debris include non-operational satellites, rocket bodies, and fragments generated from explosions, collisions, or faulty payload assembly.

Loading next visibility...
Identifier
44642, 2018-079C
Orbit
HEO
Country
Flag of USUS
Related business
Flag of USUnited Launch Alliance/Lockheed Martin (US)
Manufacturer
ULA Decatur
Mission
Spacecraft
Bus & Motor
Unknown
Mass
Unknown
Launch date (UTC)
2018-10-17 (7 years ago)
Launch vehicle
Unknown
Launch site
Air Force Eastern Test Range (AFETR)
Object type
Payload
Rocket body
Debris
Shape & HBR
Unknown shape, 1.1 m
Radar Cross Section
Large (>1 m²)

Expand to show TLE details & history
Last TLE update: 22 hours ago

TLE from 22 hours ago
0 ATLAS 5 CENTAUR DEB
1 44642U 18079C   25286.52385627 -.00000164  00000-0  00000-0 0  9998
2 44642  12.9383  49.3178 4645908 290.6557  26.5392  1.84453140 47097
Epoch: 2025-10-13T12:34Z
TLE epoch observation values (Epoch: 2025-10-13T12:34:21.181Z)
Latitude
-0.00001°
Longitude
-161.61278°
Altitude
12,524.467 km
Speed
5.29 km/s
True Right ascension
03h 17m 12s
True Declination
0° 00' 00"
Sunlit
Object was in daylight at epoch
Visualization orbit readout
Latitude
Unknown
Longitude
Unknown
Altitude
Unknown
Speed
Unknown
Apparent Right ascension
Unknown
Apparent Declination
Unknown
Sunlit
N/A
Visualization observer readout
Local Sidereal Time
05:30:47
Azimuth
Unknown
Elevation
Unknown
Doppler factor
Unknown
Orbital elements
Apogee altitude
34,758.3 km
Perigee altitude
8,660.075 km
Semi-major axis
28,087.324 km
Eccentricity
0.46459
Inclination
12.9383°
RAAN
49.3178°
Arg. of periapsis
290.6557°
True anomaly
69.53549°
Mean anomaly
26.5392°
Eccentric anomaly
45.53748°
Mean motion
0.46108 °/min
Orbital period
780.77 mins
BSTAR
0
Loading maneuver chart data...
Computing Atmospheric mass density...

Documentation

Showing up to 5 results
|